TimeEDT,TemperatureF,Dew PointF,Humidity,Sea Level PressureIn,VisibilityMPH,Wind Direction,Wind SpeedMPH,Gust SpeedMPH,PrecipitationIn,Events,Conditions,WindDirDegrees,DateUTC
12:15 AM,55.4,53.6,94,30.13,-9999.0,Calm,Calm,-,N/A,,Overcast,0,2013-09-16 04:15:00
12:35 AM,55.4,53.6,94,30.14,-9999.0,Calm,Calm,-,N/A,,Overcast,0,2013-09-16 04:35:00
12:55 AM,55.4,53.6,94,30.15,-9999.0,Calm,Calm,-,N/A,,Overcast,0,2013-09-16 04:55:00
1:15 AM,55.4,53.6,94,30.15,-9999.0,Calm,Calm,-,N/A,,Overcast,0,2013-09-16 05:15:00
1:35 AM,55.4,53.6,94,30.15,-9999.0,Calm,Calm,-,N/A,,Overcast,0,2013-09-16 05:35:00
1:55 AM,55.4,53.6,94,30.15,-9999.0,Calm,Calm,-,N/A,,Overcast,0,2013-09-16 05:55:00
2:15 AM,55.4,53.6,94,30.16,-9999.0,Calm,Calm,-,N/A,,Overcast,0,2013-09-16 06:15:00
2:35 AM,55.4,53.6,94,30.16,-9999.0,Calm,Calm,-,N/A,,Overcast,0,2013-09-16 06:35:00
2:55 AM,55.4,53.6,94,30.17,-9999.0,Calm,Calm,-,N/A,,Overcast,0,2013-09-16 06:55:00
3:15 AM,55.4,53.6,94,30.17,-9999.0,Calm,Calm,-,N/A,,Overcast,0,2013-09-16 07:15:00
3:35 AM,55.4,53.6,94,30.17,-9999.0,Calm,Calm,-,N/A,,Overcast,0,2013-09-16 07:35:00
3:55 AM,55.4,53.6,94,30.17,-9999.0,Calm,Calm,-,N/A,,Overcast,0,2013-09-16 07:55:00
4:15 AM,55.4,53.6,94,30.18,-9999.0,Calm,Calm,-,N/A,,Unknown,0,2013-09-16 08:15:00
4:35 AM,55.4,53.6,94,30.18,-9999.0,NNW,4.6,-,N/A,,Unknown,340,2013-09-16 08:35:00
4:55 AM,55.4,53.6,94,30.19,-9999.0,North,3.5,-,N/A,,Unknown,350,2013-09-16 08:55:00
5:15 AM,55.4,53.6,94,30.19,-9999.0,North,3.5,-,N/A,,Overcast,350,2013-09-16 09:15:00
5:35 AM,55.4,53.6,94,30.20,-9999.0,North,3.5,-,N/A,,Overcast,350,2013-09-16 09:35:00
5:55 AM,55.4,51.8,88,30.20,-9999.0,North,6.9,-,N/A,,Unknown,360,2013-09-16 09:55:00
6:15 AM,55.4,51.8,88,30.21,-9999.0,North,5.8,-,N/A,,Unknown,10,2013-09-16 10:15:00
6:35 AM,55.4,51.8,88,30.21,-9999.0,NNE,3.5,-,N/A,,Unknown,20,2013-09-16 10:35:00
6:55 AM,55.4,51.8,88,30.22,-9999.0,NNE,3.5,-,N/A,,Overcast,20,2013-09-16 10:55:00
7:15 AM,55.4,51.8,88,30.23,-9999.0,North,8.1,-,N/A,,Overcast,10,2013-09-16 11:15:00
7:35 AM,55.4,51.8,88,30.24,-9999.0,NNE,5.8,-,N/A,,Overcast,20,2013-09-16 11:35:00
7:55 AM,55.4,51.8,88,30.25,-9999.0,NNE,6.9,-,N/A,,Unknown,20,2013-09-16 11:55:00
8:15 AM,53.6,51.8,94,30.25,-9999.0,NNE,8.1,-,N/A,,Unknown,20,2013-09-16 12:15:00
8:35 AM,53.6,51.8,94,30.26,-9999.0,NNE,5.8,-,N/A,,Unknown,20,2013-09-16 12:35:00
8:55 AM,53.6,51.8,94,30.27,-9999.0,NNE,6.9,-,N/A,,Mostly Cloudy,20,2013-09-16 12:55:00
9:15 AM,55.4,51.8,88,30.28,-9999.0,North,6.9,-,N/A,,Mostly Cloudy,10,2013-09-16 13:15:00
9:35 AM,57.2,51.8,82,30.28,-9999.0,North,6.9,-,N/A,,Scattered Clouds,360,2013-09-16 13:35:00
9:55 AM,59.0,53.6,82,30.29,-9999.0,NE,6.9,-,N/A,,Overcast,40,2013-09-16 13:55:00
10:15 AM,57.2,51.8,82,30.30,-9999.0,North,5.8,-,N/A,,Overcast,360,2013-09-16 14:15:00
10:35 AM,57.2,51.8,82,30.30,-9999.0,North,8.1,-,N/A,,Overcast,360,2013-09-16 14:35:00
10:55 AM,57.2,51.8,82,30.30,-9999.0,North,5.8,-,N/A,,Overcast,10,2013-09-16 14:55:00
11:15 AM,59.0,51.8,77,30.31,-9999.0,North,6.9,-,N/A,,Overcast,360,2013-09-16 15:15:00
11:35 AM,59.0,50.0,72,30.32,-9999.0,NNE,10.4,-,N/A,,Overcast,30,2013-09-16 15:35:00
11:55 AM,59.0,50.0,72,30.32,-9999.0,North,8.1,-,N/A,,Overcast,10,2013-09-16 15:55:00
12:15 PM,59.0,50.0,72,30.32,-9999.0,NNE,6.9,-,N/A,,Overcast,20,2013-09-16 16:15:00
12:35 PM,59.0,50.0,72,30.33,-9999.0,North,6.9,-,N/A,,Overcast,360,2013-09-16 16:35:00
12:55 PM,59.0,50.0,72,30.33,-9999.0,NNE,6.9,-,N/A,,Overcast,30,2013-09-16 16:55:00
1:15 PM,59.0,50.0,72,30.33,-9999.0,NE,4.6,-,N/A,,Overcast,50,2013-09-16 17:15:00
1:35 PM,60.8,50.0,68,30.33,-9999.0,ENE,5.8,-,N/A,,Overcast,70,2013-09-16 17:35:00
1:55 PM,62.6,48.2,59,30.33,-9999.0,North,4.6,-,N/A,,Overcast,350,2013-09-16 17:55:00
2:15 PM,62.6,46.4,55,30.33,-9999.0,NNE,3.5,-,N/A,,Overcast,20,2013-09-16 18:15:00
2:35 PM,62.6,44.6,52,30.32,-9999.0,Calm,Calm,-,N/A,,Mostly Cloudy,0,2013-09-16 18:35:00
2:55 PM,62.6,44.6,52,30.32,-9999.0,NE,4.6,-,N/A,,Mostly Cloudy,40,2013-09-16 18:55:00
3:15 PM,68.0,44.6,43,30.31,-9999.0,ENE,4.6,-,N/A,,Scattered Clouds,70,2013-09-16 19:15:00
3:35 PM,66.2,44.6,46,30.30,-9999.0,NW,3.5,-,N/A,,Clear,310,2013-09-16 19:35:00
3:55 PM,64.4,44.6,49,30.30,-9999.0,North,3.5,-,N/A,,Scattered Clouds,350,2013-09-16 19:55:00
4:15 PM,64.4,44.6,49,30.29,-9999.0,North,3.5,-,N/A,,Scattered Clouds,350,2013-09-16 20:15:00
4:35 PM,68.0,42.8,40,30.29,-9999.0,ENE,5.8,-,N/A,,Scattered Clouds,60,2013-09-16 20:35:00
4:55 PM,64.4,42.8,45,30.29,-9999.0,Calm,Calm,-,N/A,,Clear,0,2013-09-16 20:55:00
5:15 PM,68.0,44.6,43,30.29,-9999.0,NE,8.1,-,N/A,,Scattered Clouds,50,2013-09-16 21:15:00
5:35 PM,64.4,42.8,45,30.30,-9999.0,NE,6.9,-,N/A,,Scattered Clouds,40,2013-09-16 21:35:00
5:55 PM,68.0,42.8,40,30.29,-9999.0,ENE,5.8,-,N/A,,Clear,60,2013-09-16 21:55:00
6:15 PM,66.2,42.8,43,30.29,-9999.0,NE,4.6,-,N/A,,Clear,40,2013-09-16 22:15:00
6:35 PM,64.4,44.6,49,30.29,-9999.0,NE,6.9,-,N/A,,Scattered Clouds,40,2013-09-16 22:35:00
6:55 PM,64.4,44.6,49,30.30,-9999.0,North,5.8,-,N/A,,Clear,10,2013-09-16 22:55:00
7:15 PM,62.6,44.6,52,30.30,-9999.0,NNE,3.5,-,N/A,,Clear,30,2013-09-16 23:15:00
7:35 PM,60.8,44.6,55,30.30,-9999.0,NE,4.6,-,N/A,,Clear,40,2013-09-16 23:35:00
7:55 PM,59.0,44.6,59,30.30,-9999.0,NE,5.8,-,N/A,,Clear,40,2013-09-16 23:55:00
8:15 PM,57.2,44.6,63,30.31,-9999.0,NNE,6.9,-,N/A,,Clear,30,2013-09-17 00:15:00
8:35 PM,55.4,44.6,67,30.31,-9999.0,NE,6.9,-,N/A,,Clear,40,2013-09-17 00:35:00
8:55 PM,55.4,44.6,67,30.33,-9999.0,NE,8.1,-,N/A,,Clear,50,2013-09-17 00:55:00
9:15 PM,53.6,44.6,72,30.33,-9999.0,NE,8.1,-,N/A,,Clear,50,2013-09-17 01:15:00
9:35 PM,53.6,44.6,72,30.33,-9999.0,NE,6.9,-,N/A,,Clear,40,2013-09-17 01:35:00
9:55 PM,51.8,44.6,76,30.33,-9999.0,NE,5.8,-,N/A,,Clear,50,2013-09-17 01:55:00
10:15 PM,51.8,44.6,76,30.34,-9999.0,NE,5.8,-,N/A,,Clear,50,2013-09-17 02:15:00
10:35 PM,51.8,44.6,76,30.34,-9999.0,NE,4.6,-,N/A,,Clear,40,2013-09-17 02:35:00
10:55 PM,50.0,44.6,82,30.34,-9999.0,NE,4.6,-,N/A,,Clear,50,2013-09-17 02:55:00
11:15 PM,50.0,44.6,82,30.35,-9999.0,NE,3.5,-,N/A,,Clear,50,2013-09-17 03:15:00
11:35 PM,50.0,42.8,76,30.35,-9999.0,NE,4.6,-,N/A,,Clear,50,2013-09-17 03:35:00
11:55 PM,48.2,42.8,82,30.35,-9999.0,NE,4.6,-,N/A,,Clear,50,2013-09-17 03:55:00